MET2568 - Amarillo to Kansas City

Bombardier Dash-8-Q200
838AH
1 hr 45 mins
414 nm
Scheduled - Daily

Bid/PiRep Status

Bid was submitted on Oct 03 2016.

PiRep # 73570: Approved by Dave Nichols on October 5th, 2016 7:40 UTC

Departure

Departing from
Amarillo (AMA)
Departure gate
A2
Scheduled Departure
GMT 0015
Local 1915
METAR KAMA 242233Z 11017G24KT 10SM FEW055 30/18 A3003 RMK AO2 PK WND 10033/2214 LTG DSNT NE AND SW AND NW TSB08E26 T03000183
TAF KAMA 241721Z 2418/2518 14008KT P6SM SCT080 FM242100 15012KT P6SM VCTS BKN080CB FM250100 17009KT P6SM SCT100

Route Map

Planning Resources

PNH J26 ICT CNU.JHAWK6
PHN GAG ICT FRACA KMCI
KAMA BROKE ICT FRACA KMCI
KAMA-PNH-GAG-ICT-FOE-KMCI
KAMA UKDEW V12 EMP.JHAWK6 KMCI
Route:
OFP Layout:
Units:
Detailed Navlog:
ETOPS Planning:
Plan Stepclimbs:
Runway Analysis:
Include NOTAMS:
FIR NOTAMS:
Flight Maps:

Return Flights

MET2563
Bombardier Dash-8-Q200
1100 GMT
MET2565
Bombardier Dash-8-Q200
1710 GMT
MET2567
Bombardier Dash-8-Q200
2210 GMT

Popularity

Hub Current Bids PiReps this month Total PiReps
KMCI 0 0 8
KLAX 0 0 0
KBOS 0 0 0